Diese Seite ist kein Flugwetterbriefingsystem zum Zwecke der meteorologischen Flugvorbereitung gemäß den Durchführungsverordnungen Nr. 2018/1139 (Annex V) & 923/2012 (SERA.2010). Für diesen Zweck nutzen Sie bitte die speziellen Flugwetterbriefingsysteme oder die individuelle Flugwetterberatung.

 Unser Platzwetter:

(um das Bild zu aktualisieren oder bei unvollständig geladenem Bild den Reload-Button des Browsers drücken)

[Quelle: ADDS]
METAR
ETNN 050320Z 26001KT 2000 SN BKN008 00/M00 Q1016 YLO =
TAF
SR / SS: 07:18 / 15:29 UTC (Vettweiss-Soller 2022-12-05)

Aktuelle Windrichtung in Relation zu unserer Bahn:

 

Aktuelle Dichtehöhe bei uns am Platz: -1.256 ft.

PPR beachten

50 44 52 N / 06 34 01 E
525 ft
14/32 Gras
360 m x 20 m
136.090 MHz
02424/901444

Kontakt:

LSG Gertrudenhof e.V.
c/o Franz-Josef Schmidt
An der Gärtnerei 13
52388 Nörvenich
02426/9593651
0175/2660491

PPR: s.o. oder
01575/3499762
02424/901444

in Lokalzeit:
08:16
16:31